Temperature
19 19 19 19 19 19 19 19 19 19 19 19 19 19 19 19 19 19 19 19 19 19 19 19 18 18 18 18 18 18 18 18 17 17 17 17 17 17 17 17 17 17 17
19 19 19 19 19 19 19 19 19 19 19 19 19 19 19 19 19 19 19 19 19 19 19 19 18 18 18 18 18 18 18 18 18 17 17 17 17 17 17 17 17 17 17
19 19 19 19 19 19 19 19 19 19 19 19 19 19 19 19 19 19 19 19 19 19 19 19 19 18 18 18 18 18 18 18 18 17 17 17 17 17 17 17 17 17 17
19 19 19 19 19 19 19 19 19 19 19 19 19 19 19 19 19 19 19 19 19 19 19 19 19 18 18 18 18 18 18 18 18 17 17 17 17 17 17 17 17 17 17
19 19 18 19 19 19 19 19 19 19 19 19 19 19 19 19 19 19 19 19 19 19 19 19 19 18 18 18 18 18 18 18 18 18 17 17 17 17 17 17 17 17 17
18 19 18 19 19 19 19 19 19 19 19 19 19 19 19 19 19 19 19 19 19 19 19 19 19 18 18 18 18 18 18 18 18 18 18 17 17 17 17 17 17 17 17
18 19 18 18 19 19 19 19 19 19 18 19 19 19 19 19 20 20 19 19 19 19 19 18 18 18 18 18 18 18 18 18 18 18 18 18 17 17 17 17 17 17 17
19 18 18 18 18 18 18 18 18 18 19 19 19 19 19 19 19 19 19 19 19 19 19 18 18 18 18 18 18 18 18 18 18 18 18 18 18 17 17 17 17 17 17
19 18 18 18 18 18 18 18 18 18 18 18 18 18 18 19 19 19 19 19 19 19 19 18 18 18 18 18 18 18 18 18 18 18 18 18 18 17 17 17 17 17 17
18 18 18 18 18 18 18 18 18 18 18 18 18 18 18 19 18 19 19 19 19 19 19 18 18 18 18 18 18 18 18 18 18 18 18 18 17 17 17 17 17 17 17
18 18 18 18 18 18 18 18 18 18 18 18 18 18 18 18 18 18 18 18 18 19 19 19 18 18 18 18 18 18 18 18 18 18 18 17 17 17 17 17 17 17 17
18 18 18 18 18 18 18 18 18 18 18 18 18 18 18 18 18 18 18 18 18 18 18 18 18 18 18 18 18 18 18 18 18 18 18 17 17 17 17 17 17 17 17
18 19 18 18 18 18 18 18 18 18 18 18 18 18 18 18 18 18 18 18 18 18 18 18 18 18 18 18 18 18 18 18 18 18 18 17 17 17 17 17 17 16 17
18 18 18 18 18 18 18 18 18 18 17 17 17 17 17 17 17 17 17 17 17 17 18 18 18 18 18 18 18 18 17 17 17 17 17 17 17 17 17 16 16 16 16
18 18 18 18 18 18 18 17 17 17 17 17 17 17 17 17 17 17 17 17 17 17 17 18 18 18 17 17 17 17 17 17 17 17 17 17 17 17 16 16 16 16 16
18 18 18 18 17 17 17 17 17 17 17 17 17 17 17 17 17 17 17 17 17 17 17 17 17 17 17 17 17 17 17 17 16 17 17 17 17 16 16 16 16 16 16
18 18 18 17 17 17 17 17 17 17 17 17 17 16 16 17 17 17 17 17 16 16 16 17 17 17 17 17 17 17 16 16 16 16 16 16 16 16 16 16 16 16 16
18 18 17 17 17 17 17 17 17 16 16 16 16 16 16 16 16 16 16 16 16 16 16 16 16 16 16 16 16 16 16 16 16 16 16 16 16 16 16 16 16 16 15
17 17 17 17 17 17 17 17 16 16 16 16 16 16 16 16 16 16 16 16 16 15 15 15 16 16 16 16 16 16 15 15 15 15 16 16 16 16 16 15 15 15 15
17 17 16 16 16 16 16 16 16 16 16 16 16 15 15 15 15 15 15 15 15 15 15 15 15 15 15 15 15 15 15 15 15 15 15 15 15 15 15 15 15 15 15
16 16 16 16 16 16 16 16 16 16 16 16 15 15 15 15 15 15 15 15 15 15 15 14 14 15 15 15 15 15 14 14 15 14 14 15 14 14 15 14 14 14 14
16 16 16 16 16 16 16 16 16 15 15 15 15 15 15 15 15 15 15 15 15 14 14 14 14 14 14 14 14 14 14 14 14 14 14 14 14 14 14 14 14 14 14
16 16 16 16 16 16 16 16 16 15 15 15 15 15 14 14 15 15 15 15 15 14 14 14 14 14 14 14 14 14 14 13 13 14 13 13 14 13 14 14 14 14 14
16 16 16 16 16 16 16 16 15 15 15 15 15 15 15 14 14 14 14 14 14 14 14 14 14 14 14 14 14 13 13 13 13 13 13 13 13 13 13 13 13 13 13
16 16 16 16 16 15 15 15 15 15 15 15 15 15 14 14 14 14 14 14 14 14 14 14 14 14 14 14 13 13 13 13 12 13 13 13 13 13 13 13 13 13 13
15 15 15 15 15 15 15 15 15 15 14 14 14 14 14 14 14 14 14 14 14 14 14 14 14 14 14 13 13 13 13 12 12 12 13 13 13 12 12 12 12 13 13
Wind_Speed
2 1 1 2 2 2 3 2 2 3 3 4 5 5 4 4 5 5 7 15 15 14 14 13 12 12 11 11 11 10 10 9 10 10 10 10 10 10 10 10 10 11 11
2 1 1 2 2 1 2 2 2 2 3 2 4 3 3 4 5 6 8 11 15 15 14 14 13 13 12 12 12 12 11 10 10 10 10 10 10 10 10 10 10 10 10
2 1 2 2 1 2 2 2 2 2 2 3 3 3 3 3 5 6 7 9 10 14 15 14 14 13 12 12 12 12 12 11 10 10 10 10 10 10 10 9 10 10 10
2 1 2 2 1 2 2 2 2 1 1 1 2 3 3 3 5 6 7 7 8 9 13 15 14 13 13 13 13 13 12 12 12 11 10 10 10 10 10 10 10 10 11
2 2 2 1 2 2 2 2 1 1 2 2 3 3 3 3 3 4 4 5 6 7 8 12 15 14 14 13 13 13 13 12 13 12 11 11 10 10 10 11 11 11 10
2 2 1 2 3 2 1 1 1 2 2 2 4 3 2 3 3 3 4 4 5 6 6 7 10 11 13 13 13 12 12 11 11 11 12 12 12 12 12 12 12 12 12
2 2 2 2 3 2 2 2 2 2 3 2 2 3 3 3 2 2 3 3 4 4 5 6 7 7 8 11 12 12 11 11 11 10 11 12 12 13 13 12 12 12 12
1 1 1 2 2 2 2 2 1 1 2 1 1 1 2 1 1 2 2 3 3 2 3 5 6 7 7 8 10 11 11 11 10 10 10 11 11 11 12 12 11 11 11
1 2 1 2 1 2 2 2 2 2 2 2 2 1 1 1 2 2 2 2 2 2 2 4 5 6 7 7 8 11 11 10 10 10 10 10 10 10 10 11 10 10 10
1 1 0 1 1 1 0 2 2 2 2 2 2 2 2 1 1 1 2 1 2 3 3 3 3 5 6 6 7 9 11 11 10 10 10 10 9 10 10 10 11 10 10
1 1 0 0 1 1 1 1 1 1 2 2 2 2 2 2 3 2 2 2 2 3 3 3 3 3 5 6 7 8 11 12 11 10 10 9 9 10 11 11 10 10 10
2 1 1 0 1 1 1 1 2 2 2 2 3 2 2 2 2 2 3 3 3 3 4 3 4 4 5 6 7 8 12 13 12 11 10 9 9 9 10 10 11 10 10
1 1 1 1 1 1 1 1 2 2 2 3 3 3 3 3 2 2 3 3 3 3 3 3 3 3 5 5 6 8 10 12 12 12 11 10 9 9 10 10 10 10 10
1 1 1 1 1 1 2 2 2 2 2 3 3 3 3 2 2 2 2 3 3 3 3 3 2 3 3 4 6 8 7 10 11 12 12 11 10 10 10 10 10 10 9
2 0 0 1 1 2 2 2 2 2 2 2 3 3 3 3 3 3 2 2 3 3 4 3 2 2 2 2 5 6 5 9 12 12 12 12 11 11 11 11 10 10 10
2 1 1 1 2 2 2 3 2 2 2 3 2 2 3 3 3 4 3 3 3 3 4 3 3 2 1 2 4 5 5 9 12 13 14 13 12 12 11 11 10 11 11
2 2 2 2 2 2 2 2 3 2 2 3 3 2 3 3 3 4 3 3 3 3 4 4 2 2 1 1 1 3 4 6 7 12 13 13 13 12 12 11 11 10 10
2 2 2 2 3 2 2 2 3 3 3 3 3 3 3 3 3 3 4 4 4 3 3 5 4 3 3 3 3 3 4 5 4 8 11 12 13 13 13 12 12 11 10
3 2 2 2 3 2 2 2 3 3 4 4 4 4 3 3 4 3 4 4 4 4 3 4 4 3 3 3 2 4 4 3 4 5 8 10 11 12 12 13 13 12 12
3 3 3 3 3 2 3 3 3 4 4 4 4 4 3 3 3 4 5 4 4 5 5 4 4 4 3 3 2 3 3 3 3 3 4 5 9 10 12 13 14 13 13
4 3 3 3 3 3 3 3 4 5 4 4 4 4 4 4 4 4 4 3 4 4 4 4 4 4 3 3 3 3 4 3 3 3 2 3 4 4 6 10 12 13 13
3 2 3 3 3 3 2 2 3 4 4 4 4 4 4 5 4 4 5 5 5 5 4 4 4 4 4 4 3 4 4 4 4 2 2 4 3 3 4 6 9 12 13
3 3 3 2 3 2 2 2 4 4 5 4 4 4 5 4 2 3 4 7 7 8 7 5 6 6 5 4 4 5 4 4 5 4 3 5 3 4 4 6 9 11 12
3 3 3 3 3 3 3 3 5 5 5 5 4 4 4 3 4 4 5 5 5 6 7 6 6 6 5 4 4 5 6 6 5 4 3 4 3 3 4 3 7 9 11
3 3 3 3 3 3 4 4 4 5 4 5 4 3 3 3 3 4 4 6 6 6 7 8 7 7 6 7 5 4 4 4 5 4 3 3 3 3 3 3 6 9 11
4 5 4 4 4 4 5 5 4 4 5 4 4 3 3 3 4 4 5 5 6 6 6 6 5 6 6 6 6 5 4 4 4 4 3 2 3 3 3 3 3 5 7
Wind_Direction
177 186 224 201 216 204 190 208 223 227 231 229 234 227 212 193 187 173 167 182 186 190 192 196 202 210 214 215 217 216 217 220 222 225 227 229 232 234 231 230 230 228 227
142 190 255 238 233 206 211 205 219 226 225 237 244 241 220 195 183 174 177 187 194 197 199 202 206 212 216 218 218 217 222 225 225 225 227 229 231 232 231 230 228 226 226
167 206 239 235 213 216 216 219 227 218 215 231 244 250 240 214 187 181 187 191 196 201 204 207 210 215 217 218 220 221 222 225 225 225 227 228 227 226 227 229 231 229 228
194 236 243 251 241 230 210 216 237 223 227 246 256 250 248 220 201 189 194 193 192 197 202 208 210 214 217 219 223 223 223 223 225 226 225 226 226 226 227 230 230 230 229
208 244 263 280 269 253 222 240 198 217 243 247 255 242 245 247 217 207 189 192 191 188 190 201 207 212 217 218 222 224 223 224 226 226 225 225 226 225 225 230 230 229 229
233 263 261 248 257 250 249 267 260 241 241 240 265 273 261 254 229 215 200 194 190 192 191 194 193 207 217 219 221 222 222 221 222 226 226 226 228 228 227 231 232 232 231
238 258 288 252 254 243 230 234 241 251 254 244 277 289 277 239 220 209 195 197 201 200 195 185 189 195 200 210 216 218 220 221 222 224 226 228 231 231 229 230 233 234 233
236 257 257 262 260 241 229 244 228 264 274 245 259 278 291 305 290 251 198 197 190 190 191 200 196 194 205 192 205 210 215 219 221 222 224 227 230 231 228 226 228 230 232
215 312 338 300 286 240 204 216 214 237 253 263 241 250 253 251 286 248 242 195 167 194 219 211 201 190 203 198 197 206 212 215 220 226 229 230 228 228 227 224 225 227 233
207 245 313 283 276 286 243 234 202 226 228 249 260 251 245 261 262 270 274 240 224 222 229 240 221 203 205 200 195 192 202 211 218 225 230 232 230 225 225 227 228 229 233
213 238 214 199 236 265 275 288 306 239 239 252 265 268 260 261 258 254 264 268 264 241 234 228 216 214 213 211 194 196 199 205 212 221 229 229 230 229 230 230 233 233 232
191 204 197 214 241 265 274 290 287 259 251 266 270 273 273 266 267 273 274 260 256 250 239 230 214 217 215 206 208 197 199 201 205 213 220 225 228 229 232 234 234 232 233
195 185 192 146 263 278 277 278 261 259 260 260 259 266 271 272 284 289 281 279 289 284 259 245 224 217 225 195 192 191 199 200 207 211 216 220 224 228 231 233 235 234 233
310 81 158 177 225 279 291 289 276 263 269 270 268 265 274 270 271 263 271 292 295 283 269 263 237 222 230 195 193 188 198 205 212 216 220 221 222 226 229 229 230 231 231
280 15 224 216 238 264 276 283 274 275 277 272 274 281 280 275 275 266 258 258 264 282 274 266 268 245 213 194 193 199 196 211 215 217 218 218 220 223 225 225 226 226 227
296 290 271 267 260 258 274 284 280 276 282 273 261 266 275 283 295 287 273 262 259 260 270 275 277 265 301 273 205 212 212 217 219 216 216 216 216 217 220 222 222 223 226
263 266 274 274 268 271 279 270 267 268 270 273 279 277 274 271 280 293 296 283 277 273 276 291 296 305 291 277 259 244 235 223 219 220 219 218 216 215 216 217 217 217 221
257 261 261 272 272 275 276 277 281 286 277 274 272 269 274 282 288 289 295 289 285 279 275 286 288 285 275 245 232 245 259 252 224 221 217 218 219 217 216 216 215 216 221
246 259 264 270 279 284 279 277 277 276 273 271 272 269 265 275 286 287 284 289 292 291 275 274 277 274 271 264 257 260 261 258 255 230 220 221 223 221 218 216 213 216 219
230 235 247 260 268 273 283 289 285 274 275 275 271 272 264 265 281 288 281 285 289 289 282 280 280 276 272 276 280 270 269 260 262 252 236 228 225 223 218 215 216 216 218
240 231 237 250 258 256 278 297 292 277 279 278 277 273 260 246 252 261 276 287 287 283 285 282 286 293 293 293 280 274 278 278 266 256 244 244 224 221 214 219 221 222 222
249 245 247 254 263 273 289 298 296 291 290 284 282 283 268 245 248 255 261 268 271 273 282 279 283 285 289 294 290 287 288 287 283 261 260 265 247 237 228 215 217 219 221
240 234 236 240 244 272 293 301 296 281 281 281 279 274 279 284 274 275 268 266 263 263 260 263 273 277 277 279 277 277 277 275 276 265 257 266 255 247 236 232 218 213 219
249 239 232 234 236 247 246 267 289 266 270 273 270 262 262 279 289 297 282 274 266 265 260 255 257 267 277 270 259 262 268 267 271 264 243 260 260 253 251 214 217 212 215
253 250 236 237 239 238 230 244 270 271 265 266 262 258 254 264 301 305 284 280 276 276 272 270 263 260 264 263 254 261 265 267 274 268 247 252 262 267 252 234 214 214 218
250 252 244 243 239 234 219 229 246 264 269 272 262 244 234 243 266 270 268 274 275 282 291 288 277 267 257 253 246 230 240 258 269 268 250 250 256 266 266 239 218 210 224
Height
1536 1537 1537 1538 1538 1538 1538 1538 1538 1539 1539 1541 1542 1543 1545 1545 1546 1547 1548 1548 1549 1550 1550 1551 1551 1552 1552 1553 1554 1554 1555 1555 1556 1556 1557 1557 1558 1559 1559 1560 1560 1561 1562
1536 1536 1536 1537 1537 1537 1537 1537 1538 1538 1539 1540 1541 1542 1543 1544 1545 1546 1546 1547 1547 1548 1549 1549 1550 1550 1551 1551 1552 1552 1553 1553 1553 1554 1554 1555 1555 1556 1557 1557 1558 1558 1559
1535 1536 1536 1536 1537 1537 1537 1537 1537 1537 1538 1539 1540 1541 1542 1542 1543 1544 1544 1545 1546 1546 1547 1547 1548 1548 1549 1549 1550 1550 1550 1551 1551 1551 1552 1552 1553 1553 1554 1555 1555 1556 1556
1535 1535 1535 1535 1536 1536 1536 1536 1536 1537 1537 1538 1539 1539 1540 1541 1541 1542 1542 1543 1544 1544 1545 1545 1546 1546 1547 1547 1547 1548 1548 1548 1548 1549 1549 1549 1550 1551 1551 1552 1553 1553 1554
1534 1534 1534 1534 1534 1535 1535 1535 1535 1536 1536 1537 1537 1538 1538 1539 1539 1540 1540 1541 1542 1542 1543 1543 1544 1544 1544 1545 1545 1545 1545 1545 1545 1546 1546 1547 1547 1548 1548 1549 1550 1550 1551
1533 1533 1533 1533 1533 1533 1533 1534 1534 1535 1535 1536 1536 1537 1537 1537 1537 1538 1539 1539 1540 1540 1541 1541 1542 1542 1542 1542 1542 1542 1542 1543 1543 1543 1543 1544 1544 1545 1545 1546 1547 1547 1548
1532 1532 1531 1531 1531 1531 1532 1532 1533 1533 1534 1535 1535 1535 1535 1535 1535 1536 1537 1537 1538 1538 1539 1539 1539 1539 1539 1539 1540 1540 1540 1540 1540 1540 1541 1541 1541 1542 1542 1543 1543 1544 1545
1531 1531 1530 1529 1530 1530 1530 1531 1531 1532 1533 1534 1534 1534 1534 1535 1534 1534 1535 1535 1535 1536 1537 1537 1537 1537 1537 1537 1537 1537 1537 1537 1537 1537 1537 1538 1538 1538 1539 1539 1540 1541 1542
1530 1529 1529 1528 1528 1528 1528 1529 1530 1530 1531 1532 1533 1534 1533 1533 1532 1533 1533 1533 1533 1534 1534 1535 1535 1534 1534 1534 1534 1534 1534 1534 1534 1534 1534 1534 1535 1535 1536 1536 1537 1538 1538
1529 1528 1528 1527 1527 1527 1527 1528 1529 1529 1530 1530 1531 1531 1532 1531 1531 1531 1531 1531 1532 1532 1532 1532 1532 1532 1532 1532 1531 1531 1531 1531 1531 1531 1531 1531 1531 1531 1532 1533 1533 1534 1535
1528 1527 1527 1527 1526 1526 1526 1527 1527 1528 1528 1528 1529 1529 1529 1529 1529 1529 1529 1529 1529 1530 1529 1529 1529 1529 1529 1528 1528 1528 1528 1528 1528 1528 1528 1528 1528 1528 1528 1529 1530 1530 1531
1527 1526 1526 1526 1525 1525 1525 1525 1525 1526 1526 1526 1526 1527 1527 1527 1527 1527 1527 1526 1527 1527 1527 1526 1526 1526 1526 1525 1525 1525 1525 1525 1525 1525 1525 1524 1524 1524 1524 1525 1526 1527 1527
1526 1525 1525 1524 1524 1524 1524 1523 1523 1523 1523 1524 1524 1524 1525 1525 1525 1525 1525 1524 1524 1524 1524 1524 1523 1523 1523 1522 1522 1521 1521 1521 1522 1521 1521 1521 1521 1521 1521 1522 1522 1523 1524
1525 1524 1524 1523 1523 1522 1522 1522 1521 1521 1521 1521 1521 1522 1522 1522 1523 1523 1523 1523 1521 1521 1521 1521 1521 1520 1520 1520 1519 1519 1518 1518 1518 1518 1518 1518 1517 1517 1517 1518 1518 1519 1520
1523 1523 1522 1522 1521 1521 1520 1520 1519 1519 1519 1519 1519 1519 1519 1520 1520 1521 1521 1520 1520 1519 1518 1518 1518 1517 1517 1517 1515 1515 1515 1514 1515 1515 1514 1514 1514 1514 1514 1514 1514 1515 1515
1520 1521 1520 1520 1520 1519 1519 1518 1517 1517 1517 1517 1516 1516 1516 1516 1516 1517 1517 1517 1517 1517 1516 1515 1514 1514 1514 1513 1513 1512 1512 1511 1511 1511 1511 1510 1510 1510 1510 1510 1510 1511 1511
1518 1518 1518 1518 1517 1517 1516 1516 1515 1515 1515 1514 1514 1514 1513 1513 1513 1514 1514 1514 1514 1513 1512 1511 1511 1511 1510 1509 1509 1508 1508 1507 1507 1507 1507 1506 1506 1506 1506 1506 1506 1507 1507
1515 1515 1515 1515 1515 1514 1514 1514 1513 1513 1513 1512 1511 1511 1510 1511 1510 1510 1510 1510 1510 1510 1509 1508 1507 1507 1507 1506 1506 1505 1504 1504 1503 1503 1502 1502 1502 1502 1501 1502 1502 1502 1503
1512 1512 1512 1512 1512 1512 1512 1511 1511 1510 1510 1510 1509 1508 1508 1508 1507 1507 1507 1507 1507 1506 1506 1505 1504 1504 1503 1503 1502 1501 1500 1500 1499 1499 1499 1498 1498 1498 1497 1497 1497 1498 1498
1509 1509 1509 1509 1509 1509 1509 1508 1508 1508 1507 1507 1506 1506 1505 1505 1505 1504 1504 1503 1503 1503 1502 1502 1501 1500 1500 1499 1498 1497 1496 1496 1496 1495 1495 1494 1494 1493 1493 1493 1493 1493 1493
1507 1507 1507 1507 1507 1507 1506 1505 1505 1505 1504 1504 1503 1503 1503 1502 1502 1501 1501 1500 1500 1499 1499 1498 1497 1496 1496 1495 1495 1494 1493 1492 1492 1492 1491 1490 1490 1489 1489 1488 1488 1488 1489
1504 1504 1504 1504 1504 1503 1503 1502 1502 1501 1501 1501 1500 1499 1499 1499 1498 1498 1498 1497 1497 1496 1495 1494 1493 1492 1491 1491 1491 1490 1490 1489 1488 1488 1487 1485 1485 1484 1484 1484 1484 1484 1484
1501 1501 1501 1500 1500 1500 1499 1499 1498 1498 1497 1497 1497 1496 1496 1496 1495 1494 1494 1493 1492 1492 1491 1491 1489 1488 1488 1487 1487 1486 1485 1485 1484 1483 1483 1481 1481 1480 1480 1480 1480 1480 1480
1499 1498 1498 1497 1497 1496 1496 1495 1495 1494 1494 1493 1493 1492 1492 1492 1491 1491 1490 1489 1488 1487 1487 1486 1486 1485 1484 1483 1482 1482 1481 1481 1480 1479 1479 1477 1477 1476 1476 1476 1476 1476 1476
1496 1496 1495 1494 1494 1493 1493 1492 1492 1491 1490 1490 1489 1489 1488 1487 1487 1487 1486 1485 1484 1483 1483 1483 1482 1481 1480 1479 1478 1477 1477 1476 1475 1474 1475 1474 1473 1472 1472 1471 1472 1472 1472
1493 1493 1492 1491 1491 1490 1490 1489 1489 1488 1487 1486 1485 1485 1484 1483 1483 1482 1482 1481 1479 1479 1478 1477 1477 1476 1475 1474 1473 1473 1472 1471 1471 1470 1470 1470 1469 1469 1468 1468 1468 1467 1467